Location: Killam
(52.7910°N, 111.8608°W)
Time: 17:39:51
(UTC+00:00)

Injun/Solrad 3 - Visible Passes

Search period start: 16 February 2026 00:00
Search period end: 26 February 2026 00:00
Orbit: 873 x 983 km, 66.8° (Epoch: 16 February)

Date Brightness Start Highest point End Pass type
(mag) Time Alt. Az. Time Alt. Az. Time Alt. Az.
16 Feb 8.2 02:22:22 10° NW 02:28:16 49° NE 02:31:22 27° E visible
16 Feb 8.5 04:08:59 10° NW 04:14:52 50° WSW 04:15:01 50° SW visible
17 Feb 7.9 02:33:24 10° NW 02:39:28 63° NE 02:42:40 29° ESE visible
17 Feb 9.0 04:20:12 10° NW 04:25:44 36° WSW 04:26:21 35° SW visible
18 Feb 7.8 02:44:26 10° NW 02:50:36 82° NE 02:54:07 28° SE visible
18 Feb 9.6 04:31:34 10° NW 04:36:32 26° WSW 04:37:47 24° SW visible
19 Feb 8.0 02:55:31 10° NW 03:01:38 76° SW 03:05:40 23° SSE visible
19 Feb 10.1 04:43:14 10° WNW 04:47:15 18° WSW 04:49:21 15° SW visible
20 Feb 8.3 01:20:03 10° NW 01:25:54 45° NE 01:31:53 10° ESE visible
20 Feb 8.5 03:06:38 10° NW 03:12:36 56° WSW 03:17:23 17° SSE visible
20 Feb 10.5 04:55:36 10° W 04:57:52 12° W 05:00:11 10° WSW visible
21 Feb 8.1 01:31:05 10° NW 01:37:07 58° NE 01:43:18 10° ESE visible
21 Feb 9.1 03:17:49 10° NW 03:23:30 40° WSW 03:29:19 10° S visible
22 Feb 7.9 01:42:07 10° NW 01:48:17 75° NE 01:54:34 10° SE visible
22 Feb 9.7 03:29:08 10° NW 03:34:20 29° WSW 03:39:37 10° SSW visible
23 Feb 8.0 01:53:11 10° NW 01:59:21 84° SW 02:05:40 10° SE visible
23 Feb 10.2 03:40:40 10° WNW 03:45:04 21° WSW 03:49:32 10° SSW visible
24 Feb 8.5 02:04:16 10° NW 02:10:21 62° WSW 02:16:33 10° SSE visible
24 Feb 10.6 03:52:41 10° WNW 03:55:43 14° WSW 03:58:47 10° SW visible
25 Feb 9.1 02:15:26 10° NW 02:21:16 45° WSW 02:27:13 10° S visible
